UAL1468 KBOS-KDCA

Flight info

Callsign UAL1468
Flight time N/A
Altitude 36000
Route SSOXS7 SSOXS Q167 ZIZZI KNUKK ATR LAFLN DEALE3
Aircraft A320/M-SDE3FGHIRWY/LB1

Departure

Time 2026-05-06 00:37
Airport Boston Logan International Airport (KBOS)

Arrival

Time N/A
Airport Ronald Reagan Washington National Airport (KDCA)
Time Latitude Longitude Altitude Speed Heading
2026-05-06 00:09 42.36328 -71.01557 26 ft 0 kts 290°
2026-05-06 00:24 42.36327 -71.01556 25 ft 2 kts 290°
2026-05-06 00:25 42.36318 -71.01525 29 ft 4 kts 296°
2026-05-06 00:25 42.36305 -71.01493 28 ft 4 kts 306°
2026-05-06 00:25 42.36287 -71.01467 26 ft 4 kts 337°
2026-05-06 00:25 42.36271 -71.01464 27 ft 1 kts 20°
2026-05-06 00:26 42.36268 -71.01466 26 ft 0 kts 20°
2026-05-06 00:30 42.36269 -71.01465 26 ft 1 kts 20°
2026-05-06 00:30 42.36289 -71.01455 28 ft 6 kts 20°
2026-05-06 00:31 42.36340 -71.01430 25 ft 9 kts 20°
2026-05-06 00:31 42.36405 -71.01398 27 ft 11 kts 20°
2026-05-06 00:31 42.36484 -71.01356 27 ft 14 kts 24°
2026-05-06 00:31 42.36582 -71.01295 25 ft 16 kts 21°
2026-05-06 00:32 42.36696 -71.01251 25 ft 18 kts 14°
2026-05-06 00:32 42.36807 -71.01284 25 ft 15 kts 340°
2026-05-06 00:32 42.36880 -71.01232 28 ft 13 kts 42°
2026-05-06 00:32 42.36951 -71.01144 29 ft 16 kts 41°
2026-05-06 00:33 42.37027 -71.01085 27 ft 20 kts 26°
2026-05-06 00:33 42.37157 -71.00997 28 ft 22 kts 26°
2026-05-06 00:33 42.37297 -71.00907 27 ft 23 kts 22°
2026-05-06 00:33 42.37506 -71.00807 28 ft 25 kts 19°
2026-05-06 00:34 42.37616 -71.00754 25 ft 26 kts 20°
2026-05-06 00:34 42.37777 -71.00675 27 ft 21 kts 20°
2026-05-06 00:34 42.37834 -71.00579 25 ft 3 kts 105°
2026-05-06 00:35 42.37828 -71.00552 27 ft 8 kts 106°
2026-05-06 00:35 42.37798 -71.00480 27 ft 10 kts 148°
2026-05-06 00:36 42.37735 -71.00500 25 ft 13 kts 202°
2026-05-06 00:36 42.37472 -71.00627 27 ft 72 kts 199°
2026-05-06 00:36 42.36825 -71.00941 28 ft 123 kts 200°
2026-05-06 00:36 42.35951 -71.01358 378 ft 132 kts 199°
2026-05-06 00:37 42.35071 -71.01727 873 ft 135 kts 189°
2026-05-06 00:37 42.34120 -71.01510 1395 ft 148 kts 169°
2026-05-06 00:37 42.33265 -71.00557 1861 ft 175 kts 146°
2026-05-06 00:37 42.32423 -70.99172 1983 ft 208 kts 143°
2026-05-06 00:38 42.31515 -70.97491 2372 ft 238 kts 126°
2026-05-06 00:38 42.31175 -70.95180 2955 ft 270 kts 92°
2026-05-06 00:38 42.31481 -70.92548 3355 ft 295 kts 82°
2026-05-06 00:38 42.31902 -70.89759 3958 ft 308 kts 80°
2026-05-06 00:39 42.32347 -70.86912 4862 ft 309 kts 80°
2026-05-06 00:39 42.32783 -70.84054 5714 ft 313 kts 80°
2026-05-06 00:39 42.33038 -70.81128 6517 ft 314 kts 96°
2026-05-06 00:39 42.32664 -70.78254 7356 ft 308 kts 113°
2026-05-06 00:40 42.31839 -70.75606 8205 ft 306 kts 122°
2026-05-06 00:40 42.30906 -70.73015 9022 ft 308 kts 121°
2026-05-06 00:40 42.29782 -70.70575 9833 ft 305 kts 135°
2026-05-06 00:40 42.28293 -70.68574 10501 ft 303 kts 148°
2026-05-06 00:41 42.26450 -70.67065 10714 ft 318 kts 162°
2026-05-06 00:41 42.24306 -70.66053 10861 ft 337 kts 167°
2026-05-06 00:41 42.22036 -70.65042 11308 ft 348 kts 167°
2026-05-06 00:41 42.19728 -70.64001 11943 ft 352 kts 166°
2026-05-06 00:42 42.17393 -70.62947 12598 ft 355 kts 168°
2026-05-06 00:42 42.14984 -70.62299 13250 ft 352 kts 179°
2026-05-06 00:42 42.12544 -70.62308 13870 ft 350 kts 191°
2026-05-06 00:42 42.10172 -70.62973 14445 ft 349 kts 201°
2026-05-06 00:43 42.07860 -70.64000 14998 ft 351 kts 202°
2026-05-06 00:43 42.05526 -70.65036 15563 ft 355 kts 201°
2026-05-06 00:43 42.03204 -70.66060 16101 ft 358 kts 201°
2026-05-06 00:43 42.00824 -70.67104 16653 ft 361 kts 201°
2026-05-06 00:44 41.98424 -70.68153 17225 ft 365 kts 201°
2026-05-06 00:44 41.95996 -70.69216 17803 ft 368 kts 201°
2026-05-06 00:44 41.93547 -70.70292 18356 ft 372 kts 201°
2026-05-06 00:44 41.91077 -70.71380 18866 ft 376 kts 201°
2026-05-06 00:45 41.88581 -70.72479 19391 ft 379 kts 201°
2026-05-06 00:45 41.86064 -70.73584 19921 ft 382 kts 201°
2026-05-06 00:45 41.83557 -70.74806 20448 ft 384 kts 207°
2026-05-06 00:45 41.81199 -70.76480 20947 ft 385 kts 212°
2026-05-06 00:46 41.78855 -70.78243 21432 ft 388 kts 212°
2026-05-06 00:46 41.76491 -70.80020 21902 ft 391 kts 212°
2026-05-06 00:46 41.74111 -70.81810 22369 ft 394 kts 212°
2026-05-06 00:46 41.71711 -70.83612 22820 ft 397 kts 212°
2026-05-06 00:47 41.69293 -70.85425 23265 ft 400 kts 212°
2026-05-06 00:47 41.66858 -70.87253 23673 ft 403 kts 213°
2026-05-06 00:47 41.64405 -70.89094 24027 ft 406 kts 213°
2026-05-06 00:47 41.61935 -70.90945 24395 ft 408 kts 213°
2026-05-06 00:48 41.59451 -70.92805 24730 ft 411 kts 213°
2026-05-06 00:48 41.56984 -70.94744 25060 ft 411 kts 218°
2026-05-06 00:48 41.54758 -70.97125 25389 ft 410 kts 227°
2026-05-06 00:48 41.52864 -70.99963 25705 ft 409 kts 236°
2026-05-06 00:49 41.51263 -71.03102 26037 ft 410 kts 239°
2026-05-06 00:49 41.49676 -71.06283 26377 ft 413 kts 239°
2026-05-06 00:49 41.48080 -71.09474 26720 ft 415 kts 239°
2026-05-06 00:49 41.46471 -71.12683 27043 ft 417 kts 239°
2026-05-06 00:50 41.44853 -71.15907 27345 ft 420 kts 239°
2026-05-06 00:50 41.43224 -71.19146 27659 ft 422 kts 239°
2026-05-06 00:50 41.41585 -71.22400 27964 ft 424 kts 239°
2026-05-06 00:50 41.39937 -71.25673 28282 ft 427 kts 239°
2026-05-06 00:51 41.38280 -71.28960 28670 ft 427 kts 240°
2026-05-06 00:51 41.36627 -71.32234 29118 ft 426 kts 240°
2026-05-06 00:51 41.34975 -71.35503 29568 ft 425 kts 240°
2026-05-06 00:51 41.33323 -71.38769 30049 ft 425 kts 240°
2026-05-06 00:52 41.31698 -71.41986 30422 ft 424 kts 240°
2026-05-06 00:52 41.30053 -71.45239 30804 ft 424 kts 240°
2026-05-06 00:52 41.28407 -71.48490 31184 ft 424 kts 240°
2026-05-06 00:52 41.26759 -71.51739 31561 ft 423 kts 240°
2026-05-06 00:53 41.25114 -71.54980 31939 ft 423 kts 240°
2026-05-06 00:53 41.23468 -71.58218 32324 ft 423 kts 240°
2026-05-06 00:53 41.21824 -71.61453 32710 ft 422 kts 240°
2026-05-06 00:53 41.20179 -71.64686 33098 ft 422 kts 241°
2026-05-06 00:54 41.18537 -71.67913 33489 ft 422 kts 241°
2026-05-06 00:54 41.16892 -71.71135 33862 ft 422 kts 241°
2026-05-06 00:54 41.15242 -71.74355 33961 ft 422 kts 240°
2026-05-06 00:55 41.11949 -71.80790 33961 ft 421 kts 241°
2026-05-06 00:55 41.08677 -71.87233 33962 ft 421 kts 241°
2026-05-06 00:56 41.05407 -71.93667 33959 ft 421 kts 241°
2026-05-06 00:56 41.02455 -72.00300 33960 ft 415 kts 250°
2026-05-06 00:57 41.00023 -72.07234 33967 ft 415 kts 250°
2026-05-06 00:57 40.98802 -72.10699 34140 ft 416 kts 249°
2026-05-06 00:57 40.97579 -72.14155 34529 ft 414 kts 249°
2026-05-06 00:57 40.96361 -72.17595 34892 ft 412 kts 249°
2026-05-06 00:58 40.95149 -72.21020 35244 ft 410 kts 249°
2026-05-06 00:58 40.93939 -72.24432 35579 ft 409 kts 248°
2026-05-06 00:58 40.92730 -72.27832 35888 ft 409 kts 246°
2026-05-06 00:59 40.89411 -72.34043 35972 ft 424 kts 229°
2026-05-06 00:59 40.85180 -72.39539 35967 ft 427 kts 229°
2026-05-06 01:00 40.80942 -72.45049 35965 ft 427 kts 229°
2026-05-06 01:00 40.76398 -72.50165 35972 ft 430 kts 224°
2026-05-06 01:01 40.71773 -72.55178 35989 ft 431 kts 224°
2026-05-06 01:01 40.67161 -72.60214 35993 ft 430 kts 225°
2026-05-06 01:02 40.62654 -72.65397 35999 ft 430 kts 226°
2026-05-06 01:02 40.58177 -72.70626 36000 ft 430 kts 226°
2026-05-06 01:03 40.53674 -72.75817 35996 ft 431 kts 225°
2026-05-06 01:03 40.49157 -72.80983 36001 ft 431 kts 225°
2026-05-06 01:04 40.44635 -72.86141 35999 ft 431 kts 225°
2026-05-06 01:04 40.40109 -72.91295 36006 ft 431 kts 225°
2026-05-06 01:05 40.35587 -72.96444 36011 ft 431 kts 225°
2026-05-06 01:05 40.31061 -73.01593 36006 ft 431 kts 225°
2026-05-06 01:06 40.27293 -73.05858 36009 ft 431 kts 225°
2026-05-06 01:07 40.17545 -73.16883 36012 ft 431 kts 225°
2026-05-06 01:07 40.13003 -73.22006 36015 ft 431 kts 225°
2026-05-06 01:08 40.08452 -73.27121 36016 ft 432 kts 225°